Weather History for KPIA - June, 2013

Change the Weather History Date:

Wednesday, June 19, 2013

  Actual Average Record
Temperature  
Mean Temperature 71 °F 73 °F  
Max Temperature 85 °F 83 °F 100 °F (1953)
Min Temperature 57 °F 63 °F 49 °F (1914)
Degree Days  
Heating Degree Days 0 0  
Month to date heating degree days 18 17  
Since 1 June heating degree days 18 17  
Since 1 July heating degree days 5831 5830  
Cooling Degree Days 6 8  
Month to date cooling degree days 95 117  
Year to date cooling degree days 202 198  
Since 1 June cooling degree days 95 117  
Growing Degree Days 20 (Base 50)    
Moisture  
Dew Point 55 °F    
Average Humidity 52    
Maximum Humidity 72    
Minimum Humidity 32    
Precipitation  
Precipitation 0.00 in 0.12 in 2.31 in (1964)
Month to date precipitation 0.95 2.23  
Year to date precipitation 28.47 16.56  
Snow  
Snow 0.00 in 0.00 in 0.00 in ()
Month to date snowfall 0.0 0.0  
Since 1 June snowfall 0.0 0.0  
Since 1 July snowfall 22.7 24.6  
Snow Depth 0.00 in    
Sea Level Pressure  
Sea Level Pressure 30.06 in    
Wind  
Wind Speed 5 mph (NE)    
Max Wind Speed 12 mph    
Max Gust Speed 17 mph    
Visibility 10 miles    
Events      
T = Trace of Precipitation, MM = Missing Value Source: NWS Daily Summary

Daily Weather History Graph

Daily Weather History Graph

Search for Another Location

Airport or City:

Trip Planner

Search our weather history database for the weather conditions in past years. The results will help you decide how hot, cold, wet, or windy it might be!

Date:

Astronomy

Jun. 19, 2013 Rise Set
Actual Time 5:27 AM CDT 8:32 PM CDT
Civil Twilight 4:54 AM CDT 9:06 PM CDT
Nautical Twilight 4:11 AM CDT 9:48 PM CDT
Astronomical Twilight 3:21 AM CDT 10:39 PM CDT
Moon 4:24 PM CDT (6/19) 2:13 AM CDT (6/19)
Length of Visible Light 16h 12m
Length of Day
15h 05m
Waxing Gibbous, 80% of the Moon is Illuminated
Jun 19
Waxing Gibbous
Jun 23
Full
Jun 29
Last Quarter
Jul 8
New
Jul 15
First Quarter

Hourly Weather History & Observations

Time (CDT) Temp. Heat Index Dew Point Humidity Pressure Visibility Wind Dir Wind Speed Gust Speed Precip Events Conditions
12:54 AM 63.0 °F - 53.1 °F 70% 30.04 in 10.0 mi ENE 10.4 mph - N/A   Clear
1:54 AM 61.0 °F - 52.0 °F 72% 30.04 in 10.0 mi NE 9.2 mph - N/A   Clear
2:54 AM 60.1 °F - 48.9 °F 67% 30.04 in 10.0 mi NE 8.1 mph - N/A   Clear
3:54 AM 57.9 °F - 48.0 °F 70% 30.06 in 10.0 mi NE 6.9 mph - N/A   Clear
4:54 AM 57.0 °F - 48.9 °F 74% 30.05 in 10.0 mi ENE 9.2 mph - N/A   Clear
5:54 AM 57.9 °F - 48.9 °F 72% 30.08 in 10.0 mi NNE 3.5 mph - N/A   Clear
6:54 AM 61.0 °F - 51.1 °F 70% 30.09 in 10.0 mi NE 6.9 mph - N/A   Clear
7:54 AM 63.0 °F - 53.1 °F 70% 30.10 in 10.0 mi East 9.2 mph - N/A   Clear
8:54 AM 66.9 °F - 55.0 °F 66% 30.10 in 10.0 mi East 5.8 mph - N/A   Clear
9:54 AM 72.0 °F - 57.9 °F 61% 30.10 in 10.0 mi Calm Calm - N/A   Clear
10:54 AM 73.9 °F - 59.0 °F 59% 30.09 in 10.0 mi Calm Calm - N/A   Clear
11:54 AM 77.0 °F - 60.1 °F 56% 30.09 in 10.0 mi East 3.5 mph - N/A   Clear
12:54 PM 80.1 °F 80.2 °F 55.9 °F 43% 30.08 in 10.0 mi Variable 4.6 mph - N/A   Clear
1:54 PM 82.0 °F 81.7 °F 57.0 °F 42% 30.05 in 10.0 mi NE 4.6 mph - N/A   Clear
2:54 PM 82.9 °F 82.4 °F 57.0 °F 41% 30.05 in 10.0 mi SE 3.5 mph - N/A   Clear
3:54 PM 84.0 °F 82.9 °F 55.0 °F 37% 30.04 in 10.0 mi NNE 4.6 mph - N/A   Clear
4:54 PM 84.0 °F - 51.1 °F 32% 30.04 in 10.0 mi Variable 4.6 mph - N/A   Partly Cloudy
5:54 PM 82.9 °F - 52.0 °F 34% 30.03 in 10.0 mi WNW 3.5 mph - N/A   Clear
6:54 PM 81.0 °F 80.8 °F 55.9 °F 42% 30.04 in 10.0 mi NNW 3.5 mph - N/A   Clear
7:54 PM 77.0 °F - 57.0 °F 50% 30.04 in 10.0 mi North 3.5 mph - N/A   Clear
8:54 PM 72.0 °F - 59.0 °F 64% 30.03 in 10.0 mi Calm Calm - N/A   Clear
9:54 PM 70.0 °F - 59.0 °F 68% 30.06 in 10.0 mi ENE 6.9 mph - N/A   Clear
10:54 PM 72.0 °F - 57.0 °F 59% 30.06 in 10.0 mi East 8.1 mph - N/A   Clear
11:54 PM 69.1 °F - 57.0 °F 65% 30.07 in 10.0 mi ENE 6.9 mph - N/A   Clear